{"data":{"norad_id":69355,"intl_designator":"2026-123C","name":"STARLINK-37593","alt_names":[],"object_type":"PAYLOAD","status":"ACTIVE","operator":null,"country":"US","launch_date":"2026-06-04","launch_site_code":"AFETR","launch_vehicle":null,"mission":null,"orbit_class":"UNKNOWN","rcs_meters":null,"size_class":null,"mass_kg":null,"dimensions":null,"purposes":["comms"],"wikipedia_slug":null,"has_3d_model":false,"image_url":null,"decayed_at":null,"tle_current":{"epoch":"2026-09-20T03:33:45.470016Z","epoch_age_seconds":59309,"freshness":"FRESH","line1":"1 69355U 26123C   26263.14844294  .00012560  00000+0  38213-3 0  9990","line2":"2 69355  53.1588 143.5471 0001191  83.8950 276.2188 15.34408340 16812","mean_motion":15.3440834,"eccentricity":0.0001191,"inclination_deg":53.1588,"raan_deg":143.5471,"arg_perigee_deg":83.895,"mean_anomaly_deg":276.2188,"bstar":0.00038213,"rev_number":1681,"period_min":93.847247988759,"perigee_km":461.86371096146,"apogee_km":463.49319320215,"semimajor_km":6840.8154520818,"source":"CELESTRAK","updated_at":"2026-09-20T09:00:44.164373Z"}}}